ボアッティーニ彗星

C/2011 Y3 ( Boattini )

English version
Home page
Updated on February 26, 2012

---------------------------------------------------------------------

・ プロフィール

発見日 2011年12月25日
発見光度 18.9等
発見者 A. Boattini (Mount Lemmon)

・ 写真集

・ 軌道要素

Epoch 2011 Aug. 27.0 TT = JDT 2455800.5
T 2011 Aug. 22.86459 TT                                 MPC
q   3.4976187            (2000.0)            P               Q
n   0.02408486     Peri.  340.66083     +0.38056579     -0.81088461
a  11.8751729      Node    84.80417     +0.89633701     +0.20519149
e   0.7054680      Incl.   26.51274     +0.22748549     +0.54805347
P  40.9
From 51 observations 2011 Dec. 25-2012 Feb. 20, mean residual 0".5.

・ 光度変化

        m1 = 11.5 + 5 logΔ + 10.0 log r

---------------------------------------------------------------------

軌道要素はM.P.E.C. 2012-D59に掲載されたものです。
光度グラフはComet for Windowsで作成したものです。

---------------------------------------------------------------------

Copyright(C) Seiichi Yoshida (comet@aerith.net). All rights reserved.